Location: Maiden
(35.5760°N, 81.2120°W)
Time: 10:47:37
(UTC-04:00)

Cosmos 1544 - Pass Details

Date: 14 June 2018
Orbit: 476 x 494 km, 82.5° (Epoch: 18 September)

Event Time Altitude Azimuth Distance (km) Brightness Sun altitude
Rises 21:14:00 0° 346° (NNW) 2,552 7.6 -6.4°
Reaches altitude 10° 21:16:09 10° 341° (NNW) 1,665 6.7 -6.7°
Maximum altitude 21:19:39 47° 266° (W) 644 4.1 -7.3°
Drops below altitude 10° 21:23:07 10° 192° (SSW) 1,644 5.5 -7.9°
Sets 21:25:14 0° 186° (S) 2,515 6.4 -8.2°
